This is the latest recevied weather packets stored in our database for station/object HS1AXC-1. If no packets are shown the sender has not sent any weather packets the latest 10 day(s).
| Time | Temp. | Humidity | Pressure | Rain* | Wind** | Luminosity | Snow |
|---|---|---|---|---|---|---|---|
| 1777981288 | 36.67° C | 55% | 1007 hPa | - | - | 0 W/m² | - |
| 1777980666 | 37.22° C | 54% | 1007 hPa | - | - | 0 W/m² | - |
| 1777980044 | 37.22° C | 49% | 1007 hPa | - | - | 0 W/m² | - |
| 1777979422 | 37.78° C | 46% | 1006 hPa | - | - | 0 W/m² | - |
| 1777978800 | 38.33° C | 45% | 1006 hPa | - | - | 0 W/m² | - |
| 1777978177 | 37.78° C | 46% | 1006 hPa | - | - | 0 W/m² | - |
| 1777977555 | 38.33° C | 46% | 1006 hPa | - | - | 0 W/m² | - |
| 1777976933 | 38.33° C | 47% | 1006 hPa | - | - | 0 W/m² | - |
| 1777976311 | 38.33° C | 47% | 1006 hPa | - | - | 0 W/m² | - |
| 1777975689 | 37.78° C | 47% | 1006 hPa | - | - | 0 W/m² | - |
| 1777975067 | 38.33° C | 47% | 1006 hPa | - | - | 0 W/m² | - |
| 1777974446 | 38.33° C | 47% | 1006 hPa | - | - | 0 W/m² | - |
| 1777973823 | 38.33° C | 47% | 1006 hPa | - | - | 0 W/m² | - |
| 1777973201 | 38.89° C | 46% | 1006 hPa | - | - | 0 W/m² | - |
| 1777972579 | 37.78° C | 47% | 1006 hPa | - | - | 1 W/m² | - |
| 1777971932 | 38.89° C | 47% | 1006 hPa | - | - | 0 W/m² | - |
| 1777971310 | 38.33° C | 46% | 1006 hPa | - | - | 0 W/m² | - |
| 1777970688 | 38.89° C | 44% | 1006 hPa | - | - | 0 W/m² | - |
| 1777970066 | 38.89° C | 45% | 1007 hPa | - | - | 1 W/m² | - |
| 1777969444 | 38.33° C | 45% | 1007 hPa | - | - | 1 W/m² | - |
| 1777968610 | 38.33° C | 44% | 1007 hPa | - | - | 1 W/m² | - |
| 1777967988 | 38.89° C | 45% | 1007 hPa | - | - | 2 W/m² | - |
| 1777967366 | 38.89° C | 44% | 1007 hPa | - | - | 2 W/m² | - |
| 1777966744 | 38.89° C | 44% | 1007 hPa | - | - | 2 W/m² | - |
| 1777966122 | 39.44° C | 44% | 1007 hPa | - | - | 2 W/m² | - |
* Rain since midnight (hover to see other rain measurements)
** Current wind speed in m/s (hover to see current wind gust speed)